FW2710 Weather Reports


Display with metric or nautical units.
time (UTC)temp
F
wind
direction
speed
MPH
gust
MPH
rain 1hr
in
rain 24hr
in
rain mn
in
humidity
%
barometer
mb
20260903133524 80 0 0.0 0.0 0.00 0.00 0.00 79 1015.6
20260903133052 79 0 0.0 0.0 0.00 0.00 0.00 79 1015.5
20260903132526 79 0 0.0 3.0 0.00 0.00 0.00 79 1015.5
20260903132023 79 0 0.0 3.0 0.00 0.00 0.00 80 1015.6
20260903131548 79 0 0.0 3.0 0.00 0.00 0.00 79 1015.6
20260903131028 78 0 0.0 2.0 0.00 0.00 0.00 80 1015.6
20260903130527 78 0 0.0 0.0 0.00 0.00 0.00 81 1015.7
20260903130109 78 0 0.0 0.0 0.00 0.00 0.00 81 1015.7
20260903125531 78 0 0.0 0.0 0.00 0.00 0.00 81 1015.6
20260903125027 77 0 0.0 0.0 0.00 0.00 0.00 82 1015.6
20260903124547 77 0 0.0 0.0 0.00 0.00 0.00 82 1015.7
20260903124027 77 0 0.0 0.0 0.00 0.00 0.00 83 1015.7
20260903123527 77 0 0.0 0.0 0.00 0.00 0.00 83 1015.7
20260903123049 76 0 0.0 0.0 0.00 0.00 0.00 83 1015.6
20260903122526 76 0 0.0 0.0 0.00 0.00 0.00 83 1015.6
20260903122026 76 0 0.0 0.0 0.00 0.00 0.00 83 1015.6
20260903121548 76 0 0.0 0.0 0.00 0.00 0.00 83 1015.7
20260903121025 76 0 0.0 0.0 0.00 0.00 0.00 83 1015.7
20260903120525 76 0 0.0 0.0 0.00 0.00 0.00 82 1015.6
20260903120048 76 0 0.0 0.0 0.00 0.00 0.00 82 1015.7
20260903115527 76 0 0.0 0.0 0.00 0.00 0.00 82 1015.7
20260903115028 76 0 0.0 0.0 0.00 0.00 0.00 82 1015.6
20260903114551 75 0 0.0 0.0 0.00 0.00 0.00 82 1015.6
20260903114024 76 0 0.0 0.0 0.00 0.00 0.00 82 1015.7
20260903113526 75 0 0.0 0.0 0.00 0.00 0.00 82 1015.7
20260903113046 75 0 0.0 0.0 0.00 0.00 0.00 82 1015.5
20260903112528 75 0 0.0 0.0 0.00 0.00 0.00 82 1015.5
20260903112030 75 0 0.0 0.0 0.00 0.00 0.00 83 1015.5
20260903111550 75 0 0.0 0.0 0.00 0.00 0.00 83 1015.5
20260903111026 75 0 0.0 0.0 0.00 0.00 0.00 83 1015.4
20260903110530 75 0 0.0 0.0 0.00 0.00 0.00 83 1015.4
20260903110109 75 0 0.0 0.0 0.00 0.00 0.00 83 1015.4
20260903105526 75 0 0.0 0.0 0.00 0.00 0.00 83 1015.4
20260903105023 75 0 0.0 0.0 0.00 0.00 0.00 83 1015.4
20260903104552 75 0 0.0 0.0 0.00 0.00 0.00 83 1015.4
20260903104028 75 0 0.0 0.0 0.00 0.00 0.00 83 1015.4
20260903103529 75 0 0.0 0.0 0.00 0.00 0.00 83 1015.4
20260903103047 75 0 0.0 0.0 0.00 0.00 0.00 83 1015.4
20260903102526 75 0 0.0 0.0 0.00 0.00 0.00 83 1015.3
20260903102026 75 0 0.0 0.0 0.00 0.00 0.00 83 1015.3
20260903101541 75 0 0.0 0.0 0.00 0.00 0.00 83 1015.3
20260903101026 75 0 0.0 0.0 0.00 0.00 0.00 84 1015.3
20260903100527 75 0 0.0 0.0 0.00 0.00 0.00 83 1015.3
20260903100048 75 0 0.0 0.0 0.00 0.00 0.00 83 1015.3
20260903095527 75 0 0.0 0.0 0.00 0.00 0.00 83 1015.3
20260903095025 75 0 0.0 0.0 0.00 0.00 0.00 83 1015.3
20260903094553 75 0 0.0 0.0 0.00 0.00 0.00 83 1015.2
20260903094025 75 0 0.0 0.0 0.00 0.00 0.00 83 1015.2
20260903093526 75 0 0.0 0.0 0.00 0.00 0.00 83 1015.3
20260903093047 76 0 0.0 0.0 0.00 0.00 0.00 83 1015.3
20260903092526 76 0 0.0 0.0 0.00 0.00 0.00 83 1015.3
20260903092030 76 0 0.0 0.0 0.00 0.00 0.00 83 1015.3
20260903091542 76 0 0.0 0.0 0.00 0.00 0.00 83 1015.4
20260903091023 76 0 0.0 0.0 0.00 0.00 0.00 83 1015.3
20260903090527 76 0 0.0 0.0 0.00 0.00 0.00 83 1015.3
20260903090049 76 0 0.0 0.0 0.00 0.00 0.00 83 1015.3
20260903085525 76 0 0.0 0.0 0.00 0.00 0.00 83 1015.4
20260903085024 76 0 0.0 0.0 0.00 0.00 0.00 82 1015.3
20260903084547 76 0 0.0 0.0 0.00 0.00 0.00 82 1015.3
20260903084026 76 0 0.0 0.0 0.00 0.00 0.00 82 1015.3
20260903083526 77 0 0.0 0.0 0.00 0.00 0.00 81 1015.3
20260903083044 77 0 0.0 0.0 0.00 0.00 0.00 81 1015.3
20260903082526 77 0 0.0 0.0 0.00 0.00 0.00 81 1015.3
20260903082024 77 0 0.0 0.0 0.00 0.00 0.00 80 1015.3
20260903081545 77 0 0.0 0.0 0.00 0.00 0.00 80 1015.3
20260903081026 78 0 0.0 0.0 0.00 0.00 0.00 79 1015.3
20260903080527 78 0 0.0 0.0 0.00 0.00 0.00 79 1015.3
20260903080048 78 0 0.0 0.0 0.00 0.00 0.00 79 1015.2
20260903075527 78 0 0.0 0.0 0.00 0.00 0.00 78 1015.2
20260903075025 78 0 0.0 0.0 0.00 0.00 0.00 78 1015.3
20260903074552 79 0 0.0 4.0 0.00 0.00 0.00 78 1015.3
20260903074028 79 0 0.0 4.0 0.00 0.00 0.00 77 1015.3
20260903073524 79 0 0.0 0.0 0.00 0.00 0.00 77 1015.2
20260903073050 79 0 0.0 0.0 0.00 0.00 0.00 77 1015.2
20260903072529 79 0 0.0 0.0 0.00 0.00 0.00 77 1015.2
20260903072032 79 0 0.0 0.0 0.00 0.00 0.00 77 1015.3
20260903071552 79 0 0.0 0.0 0.00 0.00 0.00 76 1015.2
20260903071025 79 0 0.0 4.0 0.00 0.00 0.00 76 1015.2
20260903070526 79 0 0.0 4.0 0.00 0.00 0.00 76 1015.3
20260903070046 79 0 0.0 3.0 0.00 0.00 0.00 76 1015.4
20260903065527 79 290 0.0 3.0 0.00 0.00 0.00 76 1015.3
20260903065025 79 0 0.0 0.0 0.00 0.00 0.00 76 1015.4
20260903064544 79 0 0.0 0.0 0.00 0.00 0.00 76 1015.4
20260903064027 79 0 0.0 4.0 0.00 0.00 0.00 75 1015.5
20260903063530 79 0 0.0 4.0 0.00 0.00 0.00 75 1015.4
20260903063053 79 0 0.0 0.0 0.00 0.00 0.00 75 1015.5
20260903062527 80 0 0.0 0.0 0.00 0.00 0.00 75 1015.4
20260903062027 80 0 0.0 0.0 0.00 0.00 0.00 75 1015.5
20260903061553 80 0 0.0 0.0 0.00 0.00 0.00 75 1015.5
20260903061028 80 0 0.0 0.0 0.00 0.00 0.00 75 1015.3
20260903060525 80 0 0.0 0.0 0.00 0.00 0.00 75 1015.3
20260903060051 79 0 0.0 0.0 0.00 0.00 0.00 75 1015.3
20260903055525 80 0 0.0 0.0 0.00 0.00 0.00 75 1015.3
20260903055026 80 0 0.0 0.0 0.00 0.00 0.00 75 1015.4
20260903054549 80 0 0.0 0.0 0.00 0.00 0.00 75 1015.3
20260903054024 80 0 0.0 0.0 0.00 0.00 0.00 75 1015.4
20260903053524 80 0 0.0 0.0 0.00 0.00 0.00 75 1015.3
20260903053107 79 0 0.0 0.0 0.00 0.00 0.00 75 1015.2
20260903052529 79 0 0.0 0.0 0.00 0.00 0.00 75 1015.2
20260903052025 79 0 0.0 0.0 0.00 0.00 0.00 76 1015.1
20260903051555 79 0 0.0 0.0 0.00 0.00 0.00 76 1015.1
20260903051026 80 0 0.0 0.0 0.00 0.00 0.00 76 1015.0
20260903050532 80 0 0.0 0.0 0.00 0.00 0.00 76 1015.0
20260903050055 80 0 0.0 0.0 0.00 0.00 0.00 75 1015.1
20260903045527 80 0 0.0 0.0 0.00 0.00 0.00 75 1015.1
20260903045025 80 0 0.0 0.0 0.00 0.00 0.00 75 1015.1
20260903044555 80 0 0.0 0.0 0.00 0.00 0.00 75 1015.0
20260903044029 80 0 0.0 0.0 0.00 0.00 0.00 76 1015.1
20260903043523 80 0 0.0 0.0 0.00 0.00 0.00 76 1015.0
20260903043046 80 0 0.0 0.0 0.00 0.00 0.00 76 1015.0
20260903042531 80 0 0.0 0.0 0.00 0.00 0.00 76 1015.0
20260903042025 80 0 0.0 0.0 0.00 0.00 0.00 77 1015.0
20260903041547 80 0 0.0 0.0 0.00 0.00 0.00 77 1015.0
20260903041027 80 0 0.0 0.0 0.00 0.00 0.00 77 1015.0
20260903040526 80 0 0.0 0.0 0.00 0.00 0.00 78 1015.0
20260903040050 80 0 0.0 0.0 0.00 0.00 0.00 78 1015.1
20260903035523 80 0 0.0 0.0 0.00 0.00 0.00 80 1015.0
20260903035026 80 0 0.0 0.0 0.00 0.00 0.00 80 1015.0
20260903034546 80 0 0.0 0.0 0.00 0.00 0.00 81 1015.0
20260903034023 80 0 0.0 0.0 0.00 0.00 0.00 81 1014.9
20260903033522 80 0 0.0 0.0 0.00 0.00 0.00 82 1015.0
20260903033052 81 0 0.0 0.0 0.00 0.00 0.00 82 1014.9
20260903032528 81 0 0.0 0.0 0.00 0.00 0.00 82 1015.0
20260903032025 81 0 0.0 0.0 0.00 0.00 0.00 83 1015.0
20260903031544 81 0 0.0 0.0 0.00 0.00 0.00 82 1014.9
20260903031028 81 0 0.0 0.0 0.00 0.00 0.00 82 1014.9
20260903030528 81 0 0.0 0.0 0.00 0.00 0.00 82 1014.9
20260903030052 81 0 0.0 0.0 0.00 0.00 0.00 82 1014.8
20260903025525 81 0 0.0 0.0 0.00 0.00 0.00 81 1014.9
20260903025026 81 0 0.0 0.0 0.00 0.00 0.00 81 1014.9
20260903024548 81 0 0.0 0.0 0.00 0.00 0.00 81 1014.8
20260903024026 81 0 0.0 0.0 0.00 0.00 0.00 81 1014.7
20260903023528 81 0 0.0 0.0 0.00 0.00 0.00 81 1014.8
20260903023052 82 0 0.0 0.0 0.00 0.00 0.00 80 1014.7
20260903022526 82 0 0.0 0.0 0.00 0.00 0.00 79 1014.9
20260903022025 82 0 0.0 0.0 0.00 0.00 0.00 78 1014.8
20260903021603 82 0 0.0 0.0 0.00 0.00 0.00 78 1014.8
20260903021025 83 0 0.0 0.0 0.00 0.00 0.00 77 1014.7
20260903020557 83 0 0.0 0.0 0.00 0.00 0.00 77 1014.8
20260903020052 83 0 0.0 0.0 0.00 0.00 0.00 77 1014.8
20260903015525 83 0 0.0 0.0 0.00 0.00 0.00 76 1014.9
20260903015027 83 0 0.0 0.0 0.00 0.00 0.00 76 1014.8
20260903014549 83 0 0.0 0.0 0.00 0.00 0.00 76 1014.7
20260903014026 83 0 0.0 0.0 0.00 0.00 0.00 76 1014.7
20260903013527 83 0 0.0 0.0 0.00 0.00 0.00 76 1014.7
20260903013045 83 0 0.0 0.0 0.00 0.00 0.00 75 1014.6
20260903012526 83 0 0.0 0.0 0.00 0.00 0.00 75 1014.7
20260903012023 83 0 0.0 0.0 0.00 0.00 0.00 74 1014.6
20260903011551 84 0 0.0 0.0 0.00 0.00 0.00 74 1014.5
20260903011024 84 0 0.0 0.0 0.00 0.00 0.00 74 1014.6
20260903010523 84 0 0.0 0.0 0.00 0.00 0.00 74 1014.5
20260903010107 84 0 0.0 0.0 0.00 0.00 0.00 73 1014.5
20260903005526 84 0 0.0 0.0 0.00 0.00 0.00 73 1014.5
20260903005026 85 0 0.0 0.0 0.00 0.00 0.00 72 1014.5
20260903004556 85 0 0.0 0.0 0.00 0.00 0.00 72 1014.6
20260903004026 85 0 0.0 0.0 0.00 0.00 0.00 72 1014.6
20260903003526 85 0 0.0 0.0 0.00 0.00 0.00 72 1014.6
20260903003045 85 0 0.0 0.0 0.00 0.00 0.00 72 1014.6
20260903002526 86 0 0.0 0.0 0.00 0.00 0.00 71 1014.6
20260903002025 86 0 0.0 0.0 0.00 0.00 0.00 71 1014.7
20260903001542 86 0 0.0 0.0 0.00 0.00 0.00 72 1014.6
20260903001026 87 0 0.0 0.0 0.00 0.00 0.00 72 1014.7
20260903000523 87 0 0.0 0.0 0.00 0.00 0.00 72 1014.6
20260903000053 87 0 0.0 0.0 0.00 0.00 0.00 72 1014.6
20260902235524 88 0 0.0 0.0 0.00 0.00 0.00 71 1014.7
20260902235030 88 0 0.0 0.0 0.00 0.00 0.00 71 1014.6
20260902234547 88 0 0.0 0.0 0.00 0.00 0.00 70 1014.6
20260902234026 89 0 0.0 0.0 0.00 0.00 0.00 70 1014.6
20260902233526 89 0 0.0 0.0 0.00 0.00 0.00 70 1014.6
20260902233046 89 0 0.0 0.0 0.00 0.00 0.00 69 1014.7
20260902232526 90 0 0.0 0.0 0.00 0.00 0.00 68 1014.7
20260902232024 90 0 0.0 0.0 0.00 0.00 0.00 68 1014.8
20260902231550 90 0 0.0 0.0 0.00 0.00 0.00 67 1014.8
20260902231026 91 0 0.0 0.0 0.00 0.00 0.00 65 1014.8
20260902230523 91 0 0.0 0.0 0.00 0.00 0.00 65 1014.9
20260902230049 92 0 0.0 0.0 0.00 0.00 0.00 67 1014.9
20260902225523 92 0 0.0 0.0 0.00 0.00 0.00 66 1014.8
20260902225023 92 0 0.0 0.0 0.00 0.00 0.00 63 1014.9
20260902224547 93 0 0.0 0.0 0.00 0.00 0.00 63 1014.8
20260902224029 93 0 0.0 0.0 0.00 0.00 0.00 62 1014.9
20260902223526 93 0 0.0 0.0 0.00 0.00 0.00 61 1014.9
20260902223054 93 0 0.0 0.0 0.00 0.00 0.00 64 1014.9
20260902222523 93 0 0.0 0.0 0.00 0.00 0.00 62 1014.9
20260902222024 93 0 0.0 0.0 0.00 0.00 0.00 62 1014.9
20260902221600 93 0 0.0 3.0 0.00 0.00 0.00 60 1014.8
20260902221027 93 0 0.0 3.0 0.00 0.00 0.00 59 1014.9
20260902220527 93 0 0.0 0.0 0.00 0.00 0.00 61 1014.9
20260902220055 93 0 0.0 0.0 0.00 0.00 0.00 61 1015.0
20260902215526 93 0 0.0 0.0 0.00 0.00 0.00 61 1015.0
20260902215028 93 0 0.0 0.0 0.00 0.00 0.00 60 1015.0
20260902214546 93 0 0.0 4.0 0.00 0.00 0.00 59 1015.0
20260902214026 93 0 0.0 4.0 0.00 0.00 0.00 61 1015.0
20260902213525 93 291 0.0 1.0 0.00 0.00 0.00 60 1015.0
20260902213053 93 0 0.0 0.0 0.00 0.00 0.00 61 1015.0
20260902212527 94 0 0.0 0.0 0.00 0.00 0.00 59 1015.1
20260902212027 94 0 0.0 0.0 0.00 0.00 0.00 61 1015.1
20260902211600 94 0 0.0 0.0 0.00 0.00 0.00 61 1015.1
20260902211026 94 0 0.0 0.0 0.00 0.00 0.00 61 1015.2
20260902210526 94 0 0.0 4.0 0.00 0.00 0.00 62 1015.3
20260902210052 94 0 0.0 4.0 0.00 0.00 0.00 59 1015.1
20260902205525 94 0 0.0 4.0 0.00 0.00 0.00 57 1015.1
20260902205028 94 0 0.0 3.0 0.00 0.00 0.00 57 1015.1
20260902204548 94 291 0.0 1.0 0.00 0.00 0.00 55 1015.2
20260902204027 94 0 0.0 4.0 0.00 0.00 0.00 59 1015.3
20260902203527 94 0 0.0 7.0 0.00 0.00 0.00 60 1015.2
20260902203048 94 0 0.0 7.0 0.00 0.00 0.00 60 1015.3
20260902202523 94 0 0.0 4.0 0.00 0.00 0.00 59 1015.3
20260902202026 94 0 0.0 4.0 0.00 0.00 0.00 58 1015.3
20260902201604 94 0 0.0 1.0 0.00 0.00 0.00 59 1015.2
20260902201027 94 0 0.0 9.0 0.00 0.00 0.00 58 1015.3
20260902200530 94 0 0.0 9.0 0.00 0.00 0.00 59 1015.3
20260902200052 94 0 0.0 4.0 0.00 0.00 0.00 59 1015.4
20260902195526 94 0 0.0 4.0 0.00 0.00 0.00 59 1015.5
20260902195022 94 0 0.0 4.0 0.00 0.00 0.00 57 1015.4
20260902194545 94 0 0.0 5.0 0.00 0.00 0.00 60 1015.5
20260902194029 94 0 0.0 6.0 0.00 0.00 0.00 57 1015.5
20260902193527 94 0 0.0 8.0 0.00 0.00 0.00 58 1015.7
20260902193049 94 291 0.0 8.0 0.00 0.00 0.00 58 1015.8
20260902192526 93 291 1.0 7.0 0.00 0.00 0.00 59 1015.8
20260902192025 93 0 0.0 4.0 0.00 0.00 0.00 59 1015.9
20260902191549 94 0 0.0 4.0 0.00 0.00 0.00 58 1015.9
20260902191025 93 0 0.0 3.0 0.00 0.00 0.00 61 1015.9
20260902190525 93 0 0.0 3.0 0.00 0.00 0.00 60 1015.9
20260902190053 93 0 0.0 4.0 0.00 0.00 0.00 60 1016.0
20260902185525 93 291 0.0 4.0 0.00 0.00 0.00 62 1016.1
20260902185023 93 0 0.0 4.0 0.00 0.00 0.00 60 1016.1
20260902184605 93 0 0.0 4.0 0.00 0.00 0.00 60 1016.1
20260902184026 93 0 0.0 0.0 0.00 0.00 0.00 61 1016.1
20260902183525 93 0 0.0 4.0 0.00 0.00 0.00 61 1016.0
20260902183051 93 0 0.0 4.0 0.00 0.00 0.00 61 1016.1
20260902182525 93 0 0.0 6.0 0.00 0.00 0.00 61 1016.1
20260902182027 93 0 0.0 6.0 0.00 0.00 0.00 60 1016.2
20260902181554 93 0 0.0 4.0 0.00 0.00 0.00 62 1016.2
20260902181026 93 0 0.0 3.0 0.00 0.00 0.00 61 1016.2
20260902180526 93 0 0.0 4.0 0.00 0.00 0.00 62 1016.4
20260902180055 92 0 0.0 4.0 0.00 0.00 0.00 65 1016.4
20260902175525 92 0 0.0 3.0 0.00 0.00 0.00 65 1016.4
20260902175024 92 0 0.0 6.0 0.00 0.00 0.00 65 1016.4
20260902174550 92 0 0.0 6.0 0.00 0.00 0.00 65 1016.4
20260902174024 92 0 0.0 6.0 0.00 0.00 0.00 65 1016.3
20260902173525 92 0 0.0 5.0 0.00 0.00 0.00 64 1016.3
20260902173046 91 0 0.0 6.0 0.00 0.00 0.00 65 1016.5
20260902172529 91 0 0.0 6.0 0.00 0.00 0.00 65 1016.5
20260902172029 90 0 0.0 1.0 0.00 0.00 0.00 66 1016.4
20260902171556 90 0 0.0 1.0 0.00 0.00 0.00 66 1016.3
20260902171025 90 0 0.0 0.0 0.00 0.00 0.00 66 1016.4
20260902170526 89 0 0.0 4.0 0.00 0.00 0.00 67 1016.4
20260902170045 89 0 0.0 6.0 0.00 0.00 0.00 68 1016.4
20260902165525 89 0 0.0 7.0 0.00 0.00 0.00 67 1016.6
20260902165026 88 291 1.0 7.0 0.00 0.00 0.00 67 1016.7
20260902164558 88 0 0.0 4.0 0.00 0.00 0.00 69 1016.6
20260902164023 88 0 0.0 8.0 0.00 0.00 0.00 68 1016.7
20260902163525 88 0 0.0 8.0 0.00 0.00 0.00 68 1016.7
20260902163049 88 0 0.0 8.0 0.00 0.00 0.00 69 1016.7
20260902162525 87 0 0.0 0.0 0.00 0.00 0.00 69 1016.7
20260902162025 87 0 0.0 5.0 0.00 0.00 0.00 69 1016.7
20260902161558 87 0 0.0 7.0 0.00 0.00 0.00 69 1016.7
20260902161026 87 0 0.0 7.0 0.00 0.00 0.00 68 1016.8
20260902160525 87 291 0.0 6.0 0.00 0.00 0.00 68 1016.8
20260902160049 87 291 0.0 5.0 0.00 0.00 0.00 69 1016.7
20260902155523 86 0 0.0 6.0 0.00 0.00 0.00 70 1016.9
20260902155027 86 0 1.0 6.0 0.00 0.00 0.00 69 1016.9
20260902154607 86 0 0.0 6.0 0.00 0.00 0.00 70 1016.9
20260902154027 86 0 0.0 5.0 0.00 0.00 0.00 70 1016.9
20260902153531 85 0 0.0 6.0 0.00 0.00 0.00 71 1016.9
20260902153047 85 0 1.0 6.0 0.00 0.00 0.00 72 1016.8
20260902152527 85 0 0.0 6.0 0.00 0.00 0.00 72 1016.8
20260902152028 85 0 0.0 4.0 0.00 0.00 0.00 71 1016.6
20260902151555 85 0 0.0 4.0 0.00 0.00 0.00 71 1016.6
20260902151027 84 0 0.0 4.0 0.00 0.00 0.00 72 1016.6
20260902150529 84 0 0.0 6.0 0.00 0.00 0.00 73 1016.6
20260902150047 84 0 0.0 6.0 0.00 0.00 0.00 72 1016.6
20260902145525 84 0 0.0 3.0 0.00 0.00 0.00 73 1016.6
20260902145030 83 0 0.0 3.0 0.00 0.00 0.00 73 1016.7
20260902144549 83 0 0.0 0.0 0.00 0.00 0.00 75 1016.6
20260902144027 82 0 0.0 0.0 0.00 0.00 0.00 75 1016.6
20260902143531 82 0 0.0 0.0 0.00 0.00 0.00 75 1016.6
20260902143045 82 0 0.0 8.0 0.00 0.00 0.00 76 1016.5
20260902142527 81 0 0.0 8.0 0.00 0.00 0.00 76 1016.6
20260902142028 81 0 0.0 8.0 0.00 0.00 0.00 76 1016.6
20260902141549 81 0 0.0 4.0 0.00 0.00 0.00 77 1016.6
20260902141027 80 291 0.0 3.0 0.00 0.00 0.00 77 1016.5
20260902140528 80 0 0.0 3.0 0.00 0.00 0.00 78 1016.5
20260902140045 80 0 0.0 2.0 0.00 0.00 0.00 78 1016.5
20260902135526 79 0 0.0 0.0 0.00 0.00 0.00 78 1016.6
20260902135026 79 0 0.0 0.0 0.00 0.00 0.00 79 1016.6
20260902134546 79 0 0.0 0.0 0.00 0.00 0.00 79 1016.6
20260902134027 79 0 0.0 0.0 0.00 0.00 0.00 80 1016.6